Regional Weather Roundup
Issued by NWS

Home | Current Version | Previous Version | Text Only | Print | Product List | Glossary On
Versions: 1 2 3 4 5 6 7 8 9 10 11 12 13 14 15 16 17 18 19 20 21 22 23 24 25 26 27 28 29 30 31 32 33 34 35 36 37 38 39 40 41 42 43 44 45 46 47 48 49 50
000
ASUS43 KTOP 180359
RWRKS

WEATHER ROUNDUP FOR KANSAS
NATIONAL WEATHER SERVICE GOODLAND KS
1100 PM CDT THU AUG 17 2017

NOTE:  "FAIR" INDICATES FEW OR NO CLOUDS BELOW 12,000 FEET WITH NO
SIGNIFICANT WEATHER AND/OR OBSTRUCTIONS TO VISIBILITY.

KSZ001>006-013>018-027>032-041>047-180500-
NORTHWEST KANSAS

CITY           SKY/WX    TMP DP  RH WIND       PRES   REMARKS
GOODLAND       CLEAR     67  60  78 SE10      30.04R
HAYS           CLOUDY    74  57  55 SE7       29.98S
HILL CITY      TSTM      67  60  78 SW10      30.04S
RUSSELL        PTCLDY    75  55  49 S12       29.96F
$$

KSZ061>065-074>080-084>089-180500-
SOUTHWEST KANSAS

CITY           SKY/WX    TMP DP  RH WIND       PRES   REMARKS
DODGE CITY     CLOUDY    77  59  53 SE15      30.03R
ELKHART          N/A     62  63 100 SE10        N/A
GARDEN CITY    PTCLDY    73  59  61 SE9       30.05R
LIBERAL        CLOUDY    67  62  84 MISG      30.06R
$$

KSZ066>073-081>083-090>101-180500-
SOUTHEAST KANSAS

CITY           SKY/WX    TMP DP  RH WIND       PRES   REMARKS
CHANUTE        CLOUDY    68  65  90 S5        29.99S
COFFEYVILLE    CLEAR     69  67  93 CALM      30.00R
HUTCHINSON     CLOUDY    71  59  65 E3        30.00R
MEDICINE LODGE   N/A     76  60  57 SE6       30.01R
NEWTON         CLOUDY    71  62  73 S8        30.01S
PARSONS        CLEAR     66  64  93 CALM      30.01R
WICHITA INTL   CLOUDY    71  63  75 S7        30.00R
WICHITA JABRA  CLOUDY    71  62  73 S8        30.01R
WINFIELD       CLOUDY    72  64  76 S3        30.03R
$$

KSZ007>012-019>026-033>040-048>060-102>105-180500-
NORTHEAST KANSAS

CITY           SKY/WX    TMP DP  RH WIND       PRES   REMARKS
CONCORDIA      CLEAR     71  60  68 S12       29.96S
EMPORIA        CLOUDY    66  62  87 S7        29.99R
LAWRENCE       CLEAR     64  64 100 CALM      29.96R
MANHATTAN      CLEAR     65  64  97 CALM      29.97R
OLATHE IND     CLEAR     71  61  70 SW8       29.98R
OLATHE EXE     CLEAR     70  62  76 SW5       29.97R
SALINA         CLOUDY    72  60  66 S7        29.97S
TOPEKA BILLARD CLEAR     67  66  97 CALM      29.96R
TOPEKA FORBES  CLEAR     68  63  84 SW6       29.97R
$$




USA.gov is the U.S. government's official web portal to all federal, state and local government web resources and services.